Welcome to Des Moines Iowa Weather. I am an independent private personal weather station on the Northwest Side of Des Moines, Iowa. Just East of Windsor Heights and just West of Glendale . This site is also mobile friendly.

There are no active watches, warnings or advisories


Visit our other weather sites:

Historical Data

Weather Station Setup



Weather Underground History page Text

Daily Summary for January 11, 2018 Units:  English    Metric   Both
« Previous Day
Next Day »
Daily Weekly Monthly Yearly Custom
  High: Low: Average:
Temperature: 42.5 °F 5.6 °F 19.4 °F
Dew Point: 41.0 °F 1.0 °F 16.6 °F
Humidity: 94 % 82 % 88 %
Wind Speed: 14.0 mph 0.0 mph 5.2 mph
Wind Gust: 24.0 mph - -
Wind:- - West
Pressure: 30.28 in 29.59 in -
Precipitation: 0.07 in    
Historical Graphs
 
 
Tabular Data for January 11, 2018
Time Temperature Dew Point Pressure Wind Wind Speed Wind Gust Humidity Rainfall Rate (Hourly)
00:09 42.2 °F 41.0 °F 29.59 in Calm   2.0 mph 94 % 0.00 in
00:24 42.3 °F 41.0 °F 29.59 in Calm   4.0 mph 94 % 0.00 in
00:39 42.4 °F 41.0 °F 29.59 in Calm   2.0 mph 94 % 0.00 in
00:54 42.5 °F 41.0 °F 29.59 in Calm   2.0 mph 94 % 0.00 in
01:24 42.5 °F 41.0 °F 29.59 in Calm   3.0 mph 93 % 0.01 in
01:39 42.4 °F 41.0 °F 29.60 in Calm     93 % 0.02 in
01:54 42.3 °F 41.0 °F 29.59 in Calm   7.0 mph 93 % 0.04 in
02:09 42.2 °F 40.0 °F 29.61 in Calm     93 % 0.05 in
02:24 41.9 °F 40.0 °F 29.61 in Calm   1.0 mph 93 % 0.04 in
02:39 41.6 °F 40.0 °F 29.63 in Calm     94 % 0.03 in
02:54 41.5 °F 40.0 °F 29.63 in Calm     94 % 0.01 in
03:09 41.7 °F 40.0 °F 29.63 in NNW 1.0 mph 5.0 mph 94 % 0.00 in
03:39 40.8 °F 39.0 °F 29.64 in NNW 1.0 mph 10.0 mph 94 % 0.00 in
03:54 40.2 °F 39.0 °F 29.64 in NNW 1.0 mph 10.0 mph 94 % 0.00 in
04:09 39.7 °F 38.0 °F 29.66 in WNW 2.0 mph 7.0 mph 94 % 0.01 in
04:25 39.2 °F 38.0 °F 29.66 in West 7.0 mph 13.0 mph 94 % 0.01 in
04:40 35.0 °F 33.0 °F 29.68 in NW 6.0 mph 17.0 mph 92 % 0.02 in
04:55 32.9 °F 31.0 °F 29.69 in NNW 6.0 mph 16.0 mph 93 % 0.02 in
05:10 30.6 °F 29.0 °F 29.70 in WNW 2.0 mph 16.0 mph 92 % 0.01 in
05:25 29.3 °F 28.0 °F 29.73 in North 4.0 mph 17.0 mph 93 % 0.01 in
05:40 27.8 °F 26.0 °F 29.74 in North 10.0 mph 17.0 mph 92 % 0.00 in
05:55 26.1 °F 24.0 °F 29.75 in NNW 4.0 mph 15.0 mph 92 % 0.00 in
06:10 25.3 °F 23.0 °F 29.76 in WNW 8.0 mph 17.0 mph 92 % 0.00 in
06:25 24.3 °F 22.0 °F 29.77 in NNW 8.0 mph 14.0 mph 91 % 0.00 in
06:40 22.8 °F 20.0 °F 29.79 in NW 6.0 mph 16.0 mph 90 % 0.00 in
06:55 22.0 °F 20.0 °F 29.80 in WNW 3.0 mph 15.0 mph 90 % 0.00 in
07:10 21.5 °F 19.0 °F 29.81 in NW 3.0 mph 15.0 mph 90 % 0.00 in
07:25 21.1 °F 19.0 °F 29.81 in WNW 5.0 mph 16.0 mph 91 % 0.00 in
07:40 20.6 °F 18.0 °F 29.82 in NW 4.0 mph 16.0 mph 91 % 0.00 in
07:55 20.4 °F 19.0 °F 29.82 in NE 5.0 mph 12.0 mph 92 % 0.00 in
08:11 19.8 °F 18.0 °F 29.82 in NNW 9.0 mph 15.0 mph 92 % 0.00 in
08:26 19.6 °F 18.0 °F 29.83 in NNW 5.0 mph 10.0 mph 92 % 0.00 in
08:41 18.9 °F 17.0 °F 29.86 in NW 2.0 mph 17.0 mph 92 % 0.00 in
08:56 18.0 °F 16.0 °F 29.89 in WNW 7.0 mph 17.0 mph 92 % 0.00 in
09:11 17.5 °F 16.0 °F 29.88 in NW 6.0 mph 15.0 mph 92 % 0.00 in
09:26 16.8 °F 15.0 °F 29.91 in NW 5.0 mph 14.0 mph 91 % 0.00 in
09:41 16.3 °F 14.0 °F 29.93 in WNW 3.0 mph 15.0 mph 91 % 0.00 in
09:56 16.0 °F 14.0 °F 29.94 in WNW 4.0 mph 20.0 mph 91 % 0.00 in
10:11 15.5 °F 13.0 °F 29.95 in WNW 4.0 mph 13.0 mph 90 % 0.00 in
10:26 15.0 °F 13.0 °F 29.94 in NW 13.0 mph 19.0 mph 90 % 0.00 in
10:41 14.7 °F 12.0 °F 29.95 in NW 4.0 mph 15.0 mph 90 % 0.00 in
10:56 14.2 °F 12.0 °F 29.94 in NW 4.0 mph 21.0 mph 90 % 0.00 in
11:11 13.7 °F 11.0 °F 29.95 in NE 5.0 mph 16.0 mph 90 % 0.00 in
11:26 14.1 °F 12.0 °F 29.96 in WNW 10.0 mph 16.0 mph 90 % 0.00 in
11:41 13.7 °F 11.0 °F 29.96 in NW 4.0 mph 20.0 mph 89 % 0.00 in
11:56 13.8 °F 11.0 °F 29.97 in NW 13.0 mph 16.0 mph 88 % 0.00 in
12:11 13.7 °F 11.0 °F 29.99 in WNW 2.0 mph 19.0 mph 87 % 0.00 in
12:26 13.0 °F 10.0 °F 29.97 in West 10.0 mph 21.0 mph 86 % 0.00 in
12:42 12.6 °F 9.0 °F 29.98 in ESE 9.0 mph 22.0 mph 86 % 0.00 in
12:57 12.5 °F 9.0 °F 29.98 in WNW 3.0 mph 20.0 mph 86 % 0.00 in
13:12 12.6 °F 9.0 °F 29.98 in WNW 5.0 mph 20.0 mph 85 % 0.00 in
13:27 11.7 °F 8.0 °F 29.99 in WNW 14.0 mph 19.0 mph 85 % 0.00 in
13:42 11.2 °F 8.0 °F 30.00 in WNW 5.0 mph 14.0 mph 86 % 0.00 in
13:57 10.8 °F 7.0 °F 30.00 in NW 4.0 mph 16.0 mph 85 % 0.00 in
14:12 10.9 °F 8.0 °F 30.01 in NW 11.0 mph 15.0 mph 86 % 0.00 in
14:27 10.8 °F 7.0 °F 30.01 in NW 13.0 mph 24.0 mph 85 % 0.00 in
14:42 11.0 °F 7.0 °F 30.02 in WNW 4.0 mph 16.0 mph 85 % 0.00 in
14:57 11.4 °F 8.0 °F 30.03 in NW 3.0 mph 17.0 mph 85 % 0.00 in
15:12 11.3 °F 7.0 °F 30.05 in NW 4.0 mph 22.0 mph 84 % 0.00 in
15:27 10.9 °F 7.0 °F 30.07 in West 6.0 mph 18.0 mph 85 % 0.00 in
15:42 11.4 °F 7.0 °F 30.08 in NW 8.0 mph 15.0 mph 83 % 0.00 in
15:57 11.0 °F 7.0 °F 30.08 in North 2.0 mph 14.0 mph 84 % 0.00 in
16:12 10.6 °F 6.0 °F 30.09 in NNE 6.0 mph 18.0 mph 83 % 0.00 in
16:28 10.7 °F 7.0 °F 30.11 in NNW 6.0 mph 15.0 mph 85 % 0.00 in
16:43 10.7 °F 7.0 °F 30.12 in North 2.0 mph 13.0 mph 85 % 0.00 in
16:58 10.7 °F 7.0 °F 30.13 in NW 10.0 mph 12.0 mph 85 % 0.00 in
17:13 10.5 °F 7.0 °F 30.13 in NW 10.0 mph 10.0 mph 86 % 0.00 in
17:28 10.3 °F 7.0 °F 30.14 in North 5.0 mph 16.0 mph 86 % 0.00 in
17:43 10.3 °F 7.0 °F 30.15 in NW 9.0 mph 17.0 mph 86 % 0.00 in
17:58 10.4 °F 7.0 °F 30.16 in NW 7.0 mph 10.0 mph 85 % 0.00 in
18:13 10.4 °F 7.0 °F 30.16 in NW 9.0 mph 13.0 mph 85 % 0.00 in
18:28 10.4 °F 7.0 °F 30.17 in NW 13.0 mph 16.0 mph 85 % 0.00 in
18:43 10.7 °F 7.0 °F 30.17 in WNW 4.0 mph 16.0 mph 85 % 0.00 in
19:28 11.0 °F 7.0 °F 30.20 in North 3.0 mph 18.0 mph 84 % 0.00 in
19:43 10.9 °F 7.0 °F 30.20 in NW 5.0 mph 16.0 mph 84 % 0.00 in
19:59 10.9 °F 7.0 °F 30.20 in NW 8.0 mph 13.0 mph 85 % 0.00 in
20:14 10.8 °F 7.0 °F 30.21 in NW 3.0 mph 17.0 mph 85 % 0.00 in
20:29 10.6 °F 7.0 °F 30.22 in North 12.0 mph 17.0 mph 86 % 0.00 in
20:44 10.5 °F 7.0 °F 30.23 in NW 3.0 mph 15.0 mph 84 % 0.00 in
20:59 9.6 °F 6.0 °F 30.24 in WNW 11.0 mph 17.0 mph 84 % 0.00 in
21:14 8.7 °F 5.0 °F 30.25 in NW 12.0 mph 13.0 mph 84 % 0.00 in
21:29 8.1 °F 4.0 °F 30.25 in NW 6.0 mph 20.0 mph 83 % 0.00 in
21:44 7.6 °F 4.0 °F 30.25 in WNW 8.0 mph 15.0 mph 83 % 0.00 in
21:59 7.3 °F 3.0 °F 30.26 in WNW 2.0 mph 16.0 mph 83 % 0.00 in
22:14 7.1 °F 3.0 °F 30.26 in North 1.0 mph 12.0 mph 83 % 0.00 in
22:29 6.8 °F 3.0 °F 30.27 in North 5.0 mph 11.0 mph 84 % 0.00 in
22:59 6.2 °F 2.0 °F 30.27 in North 3.0 mph 11.0 mph 84 % 0.00 in
23:15 6.0 °F 2.0 °F 30.27 in North 8.0 mph 11.0 mph 83 % 0.00 in
23:30 5.6 °F 1.0 °F 30.28 in North 4.0 mph 12.0 mph 82 % 0.00 in
Des Moines Weather and Climate
Compliments of Weather Underground - 2.75 mb

Script developed by  Jim McMurry - jmcmurry@mwt.net Adapted for the template by  Wim van der Kuil - Leuven-Template.eu

You find our weather info also at:

Weather Underground

Equipment we use:

Weather-station
Davis VP2 Plus

Weather-program
Davis Weatherlink.Com

Weather-server
iMac (Retina 4K, 21.5-inch, Late 2015)

Provider
Hostmonster.com

Davis VP2 Plus

Davis Weatherlink.Com

iMac (Retina 4K, 21.5-inch, Late 2015)

Hostmonster.com